Location: Croydon
(51.3762°N, 0.0982°W)
Time: 15:52:57
(UTC+01:00)

VELOX 1 - Pass Details

Date: 01 May 2019
Orbit: 629 x 644 km, 98.2° (Epoch: 19 May)

Event Time Altitude Azimuth Distance (km) Brightness Sun altitude
Exits shadow 02:35:20 39° 254° (WSW) 952 ? -20.3°
Maximum altitude 02:35:33 39° 262° (W) 948 ? -20.3°
Drops below altitude 10° 02:39:41 10° 332° (NNW) 2,023 ? -20.0°
Sets 02:42:01 0° 340° (NNW) 2,938 ? -19.9°
